Info for pilots

Image

Airfield Info:

EBUL
N51 08.7 - E003 28.6
ELEV 95' / 29m
RWY 07 / 25
799m * 45m (CIV) - 2980m (MIL)
Ursel Radio 135.130
Tel Aero Club Brugge : +32(0)9 374 25 75
Tel Vliegclub Ursel : +32(0)9 374 12 90

Operational Hours
FRI: 14h00LT - SS+30 MIN
SAT, SUN and HOL: TKOF and LDG: 10h00LT - SS+30 MIN
After 20h00LT to SS+30 MIN: only LDG allowed (PN)

Local Traffic Regulations
The use of the AD is subject to PPR from the OPR;
AD given in concession to the CIV club outside MIL ACT;
Solo training flights can only be performed after two reconnaissance flights with instructor. The solo training flight must be performed within six weeks after the first reconnaissance flight;
Jet aircraft operations not allowed.

Obstacles:
trees between 10M AGL and 22M AGL, caution when crosswind:
North of the RWY, 75M from CL, along the whole length of the RWY;
South of the RWY, 75M from CL, and at THR RWY 25 from THR RWY 07 to 140M east of THR RWY 07



Image

Image

Watch out!

PPR request:
Vliegclub Ursel: (VCU) +32(0)9 374 12 90
Aeroclub Brugge: (ACB) +32(0)9 374 25 75
Ursel Radio: 135.130 MHz

Flight Procedures:
RWY 07 and 25 left hand circuit, 1.200 FT QNH

Image

Taxi procedures:
RWY 07 (TKOF):
taxi on the north side of the RWY to the HLDG position of RWY 07

RWY 07 (LDG):
after landing roll out to the second intersection (THR RWY 25), turn left, turn left again, taxi via the TWY to the first intersection, turn left, cross the RWY (check for landing ACFT), taxi on the south side of the RWY to the AD reporting office

RWY 25 (TKOF):
taxi on the north side of the first intersection, turn left, next turn right, taxi via the TWY to the second intersection, turn right, taxi to the HLDG of RWY 25

RWY 25 (LDG):
after landing roll out to the end of the RWY, taxi on the south side of the RWY to the AD reporting office.





Image

Taxi & Circuit?

Image
Image
Image
Image

Current Metars - Auto refresh

EBOS - Oostende
2021/12/08 06:20 EBOS 080620Z 18010KT 9999 -SHRA FEW014CB SCT022 BKN035 04/03 Q0993 RESHGS TEMPO 4000 SHRA


EBAW - Antwerpen
2021/12/08 06:20 EBAW 080620Z 19012KT 9999 FEW021 05/01 Q0994 NOSIG


EBBR - Brussel
2021/12/08 06:20 EBBR 080620Z 21014KT 9999 BKN022 05/02 Q0994 NOSIG

Source : NOAA.GOV

Current TAFs - Auto refresh

EBOS - Oostende
2021/12/08 06:27 TAF EBOS 080530Z 0806/0912 19015G25KT 9999 SCT025 SCT035 PROB40 TEMPO 0806/0901 4000 SHGSRA SCT007 BKN014CB BECMG 0816/0818 21012KT BECMG 0901/0903 BKN012 TEMPO 0901/0912 4000 RA BKN007

EBAW - Antwerpen
2021/12/08 06:27 TAF TAF EBAW 080530Z 0806/0815 20013KT 9999 SCT020 SCT035

EBBR - Brussel
2021/12/08 06:28 TAF EBBR 080530Z 0806/0912 20013KT 9999 SCT025 SCT035 TEMPO 0906/0912 4000 RA SCT007 BKN010

Source : NOAA.GOV
Image

Webcam

Direction runway 07 :